Location: Newark
(23.1300°N, 73.6109°E)
Time: 16:49:22
(UTC+00:00)

NOAA 18 - Pass Details

Date: 08 July 2020
Orbit: 839 x 862 km, 99.0° (Epoch: 05 August)

Event Time Altitude Azimuth Distance (km) Brightness Sun altitude
Exits shadow 16:49:31 35° 262° (W) 1,352 6.4 -33.0°
Drops below altitude 10° 16:54:28 10° 325° (NW) 2,491 8.5 -33.7°
Sets 16:57:03 0° 334° (NNW) 3,426 9.4 -34.1°
